N48MQ KGYH-

Flight info

Callsign N48MQ
Flight time N/A
Altitude
Route
Aircraft M20P/L-VGD/C

Departure

Time 2026-04-17 23:07
Airport Donaldson Field Airport (KGYH)

Arrival

Time N/A
Airport -
Time Latitude Longitude Altitude Speed Heading
2026-04-17 23:02 34.76265 -82.37598 937 ft 0 kts 132°
2026-04-17 23:04 34.76264 -82.37598 937 ft 0 kts 132°
2026-04-17 23:04 34.76234 -82.37547 935 ft 12 kts 106°
2026-04-17 23:04 34.76297 -82.37452 932 ft 20 kts 39°
2026-04-17 23:04 34.76427 -82.37322 925 ft 23 kts 40°
2026-04-17 23:05 34.76433 -82.37251 923 ft 0 kts 131°
2026-04-17 23:05 34.76432 -82.37249 923 ft 0 kts 132°
2026-04-17 23:05 34.76410 -82.37221 923 ft 5 kts 131°
2026-04-17 23:05 34.76392 -82.37193 923 ft 0 kts 130°
2026-04-17 23:06 34.76364 -82.37152 923 ft 13 kts 131°
2026-04-17 23:06 34.76205 -82.37261 928 ft 56 kts 220°
2026-04-17 23:06 34.75804 -82.37671 937 ft 101 kts 220°
2026-04-17 23:07 34.75204 -82.38284 1242 ft 99 kts 220°
2026-04-17 23:07 34.74664 -82.38798 1560 ft 103 kts 216°
2026-04-17 23:07 34.74034 -82.39235 1872 ft 106 kts 206°
2026-04-17 23:07 34.73327 -82.39565 2183 ft 109 kts 200°
2026-04-17 23:08 34.72590 -82.39799 2487 ft 111 kts 197°
2026-04-17 23:08 34.71856 -82.40095 2794 ft 111 kts 201°
2026-04-17 23:08 34.71136 -82.40454 3103 ft 110 kts 204°
2026-04-17 23:08 34.70433 -82.40831 3406 ft 110 kts 205°
2026-04-17 23:09 34.69730 -82.41225 3711 ft 111 kts 206°
2026-04-17 23:09 34.69033 -82.41624 4014 ft 110 kts 206°